Tracking 33200 objects as of 17-Feb-2026
HD Live streaming from Space Station
objects crossing your sky now

STARLINK-4695

Track STARLINK-4695 now!
10-day predictions
STARLINK-4695 is classified as:


NORAD ID: 53718
Int'l Code: 2022-107U
Perigee: 545.9 km
Apogee: 547.9 km
Inclination: 53.2 °
Period: 95.4 minutes
Semi major axis: 6917 km
RCS: Unknown
Launch date: September 5, 2022
Source: United States (US)
Launch site: AIR FORCE EASTERN TEST RANGE (AFETR)
Your satellite tracking list
Your tracking list is empty




NASA's NSSDC Master Catalog

Two Line Element Set (TLE):
1 53718U 22107U   26048.04923486 -.00000129  00000-0  10014-4 0  9995
2 53718  53.2191 347.0421 0001380 103.9401 256.1745 15.08835060191285
Source of the keplerian elements: AFSPC